FW4287 Weather Reports


Display with metric or nautical units.
time (UTC)temp
F
wind
direction
speed
MPH
gust
MPH
rain 1hr
in
rain 24hr
in
rain mn
in
humidity
%
barometer
mb
20260902131605 49 60 2.0 4.0 0.00 0.00 0.00 83 1011.0
20260902130032 50 194 1.0 5.0 0.00 0.00 0.00 81 1011.0
20260902124532 52 65 3.0 7.0 0.00 0.00 0.00 79 1011.0
20260902123032 53 56 4.0 7.0 0.00 0.00 0.00 80 1011.0
20260902121531 53 55 5.0 8.0 0.00 0.00 0.00 79 1011.1
20260902113034 57 311 2.0 8.0 0.00 0.00 0.00 67 1011.3
20260902103108 58 247 9.0 17.0 0.00 0.00 0.00 67 1011.6
20260902101603 58 238 9.0 18.0 0.00 0.00 0.00 69 1011.5
20260902100032 58 236 9.0 18.0 0.00 0.00 0.00 69 1011.6
20260902094607 58 231 9.0 15.0 0.00 0.00 0.00 69 1011.7
20260902093031 58 228 9.0 15.0 0.00 0.00 0.00 69 1011.9
20260902091531 58 227 9.0 16.0 0.00 0.00 0.00 69 1012.0
20260902090035 58 227 8.0 14.0 0.00 0.00 0.00 70 1011.9
20260902084530 58 237 8.0 14.0 0.00 0.00 0.00 69 1011.9
20260902083034 58 225 11.0 21.0 0.00 0.00 0.00 69 1011.9
20260902074529 58 229 9.0 18.0 0.00 0.00 0.00 69 1012.1
20260902073106 59 228 10.0 18.0 0.00 0.00 0.00 69 1012.2
20260902071644 59 232 11.0 21.0 0.00 0.00 0.00 69 1012.3
20260902070031 59 231 9.0 18.0 0.00 0.00 0.00 69 1012.6
20260902064647 59 236 10.0 18.0 0.00 0.00 0.00 69 1012.7
20260902063103 60 218 10.0 18.0 0.00 0.00 0.00 68 1012.9
20260902061531 60 219 9.0 17.0 0.00 0.00 0.00 67 1013.0
20260902054529 61 207 9.0 16.0 0.00 0.00 0.00 65 1012.9
20260902053030 61 215 8.0 14.0 0.00 0.00 0.00 65 1012.9
20260902044527 61 207 10.0 18.0 0.00 0.00 0.00 65 1012.5
20260902043031 61 209 10.0 16.0 0.00 0.00 0.00 65 1012.4
20260902041530 61 213 9.0 19.0 0.00 0.00 0.00 64 1012.3
20260902040027 61 209 9.0 16.0 0.00 0.00 0.00 64 1012.2
20260902033030 61 213 9.0 17.0 0.00 0.00 0.00 64 1011.9
20260902031532 61 219 11.0 19.0 0.00 0.00 0.00 64 1011.8
20260902030030 61 220 11.0 22.0 0.00 0.00 0.00 63 1011.9
20260902023031 62 203 11.0 20.0 0.00 0.00 0.00 61 1011.7
20260902020030 63 212 13.0 24.0 0.00 0.00 0.00 59 1011.6
20260902014532 64 210 12.0 20.0 0.00 0.00 0.00 57 1011.7
20260902013031 64 220 13.0 23.0 0.00 0.00 0.00 56 1011.6
20260902011608 65 235 13.0 23.0 0.00 0.00 0.00 54 1011.3
20260902010029 65 210 13.0 22.0 0.00 0.00 0.00 55 1011.4
20260902004603 66 228 11.0 21.0 0.00 0.00 0.00 54 1011.2
20260902001533 67 232 9.0 20.0 0.00 0.00 0.00 53 1010.8
20260902000028 67 227 10.0 18.0 0.00 0.00 0.00 53 1010.8
20260901233033 69 212 6.0 12.0 0.00 0.00 0.00 50 1010.9
20260901231604 69 226 7.0 15.0 0.00 0.00 0.00 49 1010.8
20260901224539 70 206 13.0 24.0 0.00 0.00 0.00 49 1010.7
20260901223030 71 221 13.0 22.0 0.00 0.00 0.00 48 1010.6
20260901221531 71 226 9.0 21.0 0.00 0.00 0.00 50 1010.5
20260901220108 68 353 5.0 10.0 0.00 0.00 0.00 58 1010.3
20260901214530 68 10 6.0 13.0 0.00 0.00 0.00 58 1010.3
20260901211531 67 9 8.0 17.0 0.00 0.00 0.00 59 1010.5
20260901210029 69 351 7.0 15.0 0.00 0.00 0.00 55 1010.5
20260901204532 70 319 6.0 12.0 0.00 0.00 0.00 53 1010.5
20260901203107 70 302 5.0 11.0 0.00 0.00 0.00 54 1010.6
20260901201531 70 343 7.0 12.0 0.00 0.00 0.00 53 1010.6
20260901200032 71 4 3.0 12.0 0.00 0.00 0.00 48 1010.7
20260901193148 70 205 11.0 19.0 0.00 0.00 0.00 48 1011.4
20260901184532 68 253 7.0 14.0 0.00 0.00 0.00 53 1011.6
20260901183030 67 243 7.0 17.0 0.00 0.00 0.00 55 1011.8
20260901181531 65 258 7.0 13.0 0.00 0.00 0.00 58 1011.9
20260901180030 64 253 9.0 17.0 0.00 0.00 0.00 60 1012.1
20260901174532 64 228 9.0 19.0 0.00 0.00 0.00 62 1012.2
20260901173107 63 226 8.0 23.0 0.00 0.00 0.00 63 1012.1
20260901171532 62 239 7.0 14.0 0.00 0.00 0.00 66 1012.1
20260901164608 61 235 6.0 13.0 0.00 0.00 0.00 68 1012.1
20260901163106 60 239 4.0 14.0 0.00 0.00 0.00 69 1012.1
20260901161531 60 267 3.0 11.0 0.00 0.00 0.00 70 1012.1
20260901160032 59 252 3.0 8.0 0.00 0.00 0.00 71 1012.0
20260901154529 59 226 2.0 7.0 0.00 0.00 0.00 71 1011.9
20260901153032 59 267 3.0 10.0 0.00 0.00 0.00 72 1011.9
20260901151602 59 233 4.0 11.0 0.00 0.00 0.00 71 1011.8
20260901150032 59 221 5.0 14.0 0.00 0.00 0.00 70 1011.7
20260901144531 59 245 4.0 13.0 0.00 0.00 0.00 70 1011.6
20260901143030 60 213 9.0 20.0 0.00 0.00 0.00 69 1011.6
20260901141531 60 207 10.0 17.0 0.00 0.00 0.00 70 1011.4
20260901140033 60 206 9.0 16.0 0.00 0.00 0.00 70 1011.3
20260901134531 60 194 7.0 17.0 0.00 0.00 0.00 70 1011.1